This is the latest recevied weather packets stored in our database for station/object YF9UAG-17. If no packets are shown the sender has not sent any weather packets the latest 1 day(s).
| Time | Temp. | Humidity | Pressure | Rain* | Wind** | Luminosity | Snow |
|---|---|---|---|---|---|---|---|
| 1778059294 | 30.56° C | 59% | 939 hPa | - | - | 0 W/m² | - |
| 1778057450 | 30° C | 59% | 939 hPa | - | - | 0 W/m² | - |
| 1778056528 | 30° C | 59% | 938 hPa | - | - | 0 W/m² | - |
| 1778054684 | 30° C | 58% | 939 hPa | - | - | 0 W/m² | - |
| 1778053762 | 30° C | 58% | 938 hPa | - | - | 0 W/m² | - |
| 1778052840 | 30° C | 57% | 939 hPa | - | - | 0 W/m² | - |
| 1778051918 | 30° C | 57% | 939 hPa | - | - | 0 W/m² | - |
| 1778050996 | 30° C | 57% | 939 hPa | - | - | 0 W/m² | - |
| 1778050074 | 30° C | 57% | 939 hPa | - | - | 0 W/m² | - |
| 1778049152 | 30° C | 57% | 939 hPa | - | - | 0 W/m² | - |
| 1778048230 | 30.56° C | 55% | 939 hPa | - | - | 0 W/m² | - |
| 1778047308 | 29.44° C | 57% | 939 hPa | - | - | 0 W/m² | - |
| 1778046386 | 30° C | 56% | 939 hPa | - | - | 0 W/m² | - |
| 1778045464 | 29.44° C | 57% | 940 hPa | - | - | 0 W/m² | - |
| 1778044542 | 28.89° C | 58% | 940 hPa | - | - | 0 W/m² | - |
| 1778043620 | 28.89° C | 59% | 940 hPa | - | - | 0 W/m² | - |
| 1778042698 | 28.89° C | 62% | 940 hPa | - | - | 0 W/m² | - |
| 1778041776 | 28.33° C | 63% | 941 hPa | - | - | 0 W/m² | - |
| 1778039931 | 28.89° C | 64% | 941 hPa | - | - | 0 W/m² | - |
| 1778039010 | 28.33° C | 65% | 941 hPa | - | - | 0 W/m² | - |
| 1778037165 | 28.33° C | 65% | 942 hPa | - | - | 0 W/m² | - |
| 1778036243 | 27.78° C | 65% | 942 hPa | - | - | 0 W/m² | - |
| 1778035321 | 27.78° C | 66% | 942 hPa | - | - | 0 W/m² | - |
| 1778033477 | 27.78° C | 64% | 942 hPa | - | - | 0 W/m² | - |
| 1778032555 | 26.67° C | 65% | 942 hPa | - | - | 0 W/m² | - |
* Rain since midnight (hover to see other rain measurements)
** Current wind speed in m/s (hover to see current wind gust speed)